CAPE
822 892 584 878 896 746 675 919 863 851 787 793 751 854 904 1004 1826 2129 2221 2058 2038 1968 1762 1443 1131 1206 1143 1066 830 866 796 862 449 183 134 391 674 736 884 678 533 450 508 413 414 532 1156 1095 1056 1012 1005 1017 911 1067 934 1052 1080 1253 1337 972 579 515 592 445 496 596 793 1488 723 480 479 346 333 194 225 370 494 636 339 327 0 0 0 0 0
580 515 251 201 594 673 786 723 773 1004 912 796 705 650 808 941 885 1940 2016 1899 1673 1569 1717 1533 1277 1082 1162 1043 790 765 836 727 554 382 377 511 668 755 786 580 455 411 632 524 616 588 1109 1148 874 490 812 991 932 736 852 995 1048 1099 1137 698 356 214 509 330 650 433 350 1038 755 1211 782 202 187 54 204 401 425 464 514 76 0 0 0 0 0
777 700 532 480 382 551 590 770 877 819 944 927 858 748 756 872 822 1164 1257 1118 1208 1305 1538 1629 1284 1092 957 1064 854 780 765 727 917 724 547 646 656 595 835 833 733 752 888 814 763 1011 932 854 677 764 1286 1081 968 745 902 1103 1010 1112 868 567 702 413 390 680 982 806 538 755 978 756 656 260 210 7 34 274 404 467 86 0 0 4 0 0 0
585 784 706 553 524 423 487 624 607 727 780 917 868 832 743 783 853 932 905 930 827 954 1658 1796 1287 1113 964 765 971 828 901 910 865 892 677 676 574 682 801 732 756 807 654 467 600 966 786 547 815 1128 1409 1014 1050 1038 1129 1115 890 786 602 1027 392 264 531 641 454 1056 993 852 623 569 497 451 405 49 0 25 439 358 10 0 26 226 71 0 0
310 847 738 629 643 555 577 642 876 931 883 782 905 980 787 740 771 890 778 777 729 616 847 1418 1596 1188 1447 994 941 847 786 825 775 783 632 609 576 666 622 565 678 485 266 268 563 544 819 1005 1111 1166 1151 1130 1113 1033 1043 879 794 849 927 689 544 461 430 748 510 714 1094 870 686 1199 1105 744 356 97 4 37 63 97 12 29 207 122 1 0 0
86 466 791 636 760 687 792 855 860 942 946 958 887 941 933 857 756 665 760 838 752 684 511 1014 1326 1127 1113 925 975 1011 887 1079 926 744 745 779 702 742 816 622 619 387 252 415 628 879 964 980 1214 960 1293 1261 1302 1221 958 963 1049 1176 935 801 614 504 332 499 391 709 954 754 730 698 677 668 1022 938 149 45 6 75 49 193 178 53 0 0 0
157 100 382 985 753 675 607 684 696 859 1191 1193 1136 1059 1027 1025 939 926 949 1023 1035 824 574 729 1013 1112 1163 1104 901 922 990 1054 947 1014 1010 981 860 928 800 574 542 607 800 887 1113 1063 939 1159 1294 1086 1269 1238 1440 1497 1274 1170 1310 771 914 685 704 314 335 536 551 639 662 834 736 662 522 801 777 762 221 212 280 14 0 3 0 0 0 0 0
40 3 34 65 98 488 652 798 944 828 857 981 1018 946 887 875 964 928 897 1030 947 843 738 525 838 1116 1027 1346 1060 902 1009 910 916 989 1141 839 978 1027 594 523 478 728 1080 849 1162 922 765 818 854 994 1240 1362 1456 1578 1398 1399 1346 1128 1104 909 794 518 386 483 433 530 586 683 785 643 675 909 992 1124 307 334 374 68 10 0 0 28 0 0 0
21 14 0 18 22 269 448 571 552 823 681 820 896 897 736 739 760 755 712 809 1014 876 915 797 663 837 988 1024 979 746 674 882 904 1034 1076 1101 1195 1061 621 724 733 985 958 1002 1153 984 745 1047 1167 1204 1347 1606 1556 1469 1502 1608 1529 1376 1414 1161 838 696 513 439 375 549 646 999 842 640 627 705 841 558 510 245 260 155 49 0 5 84 0 14 0
46 27 8 4 15 148 346 466 684 675 474 582 660 683 678 689 642 589 614 685 768 698 560 645 657 690 830 691 811 1022 1172 1462 1164 874 879 1174 1073 988 845 984 1214 1180 1167 1445 1257 885 1069 1231 1194 1416 1513 1762 1560 1192 1136 1082 1295 1512 1495 1091 1022 701 426 476 564 376 557 794 797 616 536 844 708 504 519 368 424 468 169 238 2 213 0 0 72
84 58 35 8 3 10 305 47 74 68 417 639 544 595 712 646 547 596 569 498 250 626 604 765 689 699 625 572 602 587 474 616 557 643 799 1058 1065 1024 921 1073 1284 1236 1335 1132 867 896 1159 1475 1617 1849 1864 1885 1242 1021 1158 1230 1135 1135 1058 948 782 708 466 515 642 257 395 543 799 801 701 565 639 563 801 523 662 390 333 236 426 77 0 1 0
120 123 93 56 0 7 360 24 49 236 599 406 330 360 439 522 551 457 475 245 497 529 550 584 680 746 554 630 703 608 474 533 287 510 571 893 994 1326 1304 1544 1307 1484 1455 1415 1053 909 1504 1530 1713 1768 1765 1823 1256 1077 1179 1107 1102 1088 1080 1101 1064 863 728 499 822 453 478 512 525 824 782 678 664 649 734 628 582 603 562 260 139 243 7 0 0
38 74 86 129 4 5 131 151 250 90 145 79 626 557 82 437 436 544 450 512 495 677 623 728 658 526 535 539 686 459 250 432 385 415 386 402 410 1138 1333 1093 1052 987 765 1082 861 1468 1620 1665 1680 1861 1715 2006 1861 1379 1203 1020 1048 1032 981 787 595 893 1201 1256 922 506 451 501 436 514 747 874 732 842 990 697 762 698 748 476 167 243 173 0 0
0 12 125 104 9 12 224 192 276 20 53 15 171 478 311 60 320 523 434 435 431 572 633 588 700 691 638 564 514 413 214 327 760 528 435 538 760 946 809 747 745 742 490 558 709 1301 1637 1521 1896 1947 1821 1984 1683 1684 1541 1098 889 857 871 823 730 689 848 1063 956 698 769 953 751 608 553 1000 1152 1337 1535 879 587 501 452 385 360 258 372 96 14
0 7 97 339 78 2 2 65 27 37 27 76 64 151 617 571 449 584 653 672 544 554 617 668 758 801 632 641 562 501 627 941 954 1063 1113 807 896 932 672 758 717 772 615 406 310 623 1202 1229 1605 1809 1958 1968 1863 1726 1746 1731 1162 922 945 1058 1138 920 881 915 897 783 994 1475 1515 1322 1011 1040 1004 1438 1327 1015 623 458 375 304 488 559 514 331 322
4 16 94 257 54 5 7 1 18 23 83 184 57 9 20 93 770 836 996 994 558 635 506 554 527 591 782 890 849 735 756 816 1041 1205 1206 1158 1083 649 643 844 742 685 620 715 520 338 315 723 778 617 1177 1274 1309 1546 1734 1558 1620 1502 1418 1453 1487 1426 1354 1220 1024 894 1134 1428 1350 1142 944 1119 1065 1162 1200 1019 780 625 446 245 231 264 308 319 135
20 53 130 164 134 12 5 11 39 37 47 70 12 12 4 0 40 9 1076 946 917 843 512 615 647 632 681 808 852 788 683 752 932 1085 1165 1229 1141 1021 960 1093 834 1373 852 648 886 806 699 564 404 813 1212 1150 1379 1363 1486 1426 1339 1494 1386 1354 1358 1478 1246 1170 1008 1029 1089 1099 1113 1172 1080 1111 1218 1346 1022 824 807 771 557 305 164 144 227 176 94
0 0 4 179 193 88 1 3 23 8 36 10 7 17 22 0 0 2 0 11 687 988 1079 1088 956 863 880 799 688 831 744 782 954 1085 1245 1217 1160 1041 1043 1127 1268 1148 916 987 754 838 1088 1041 1106 1301 1212 1089 1373 1408 1311 1500 1132 1165 1066 1138 1407 1398 1514 1348 1149 1209 1150 1129 1138 1076 896 963 1465 1124 734 729 600 462 377 231 218 206 222 176 26
1 0 0 24 292 175 43 0 4 0 6 15 14 1 7 20 11 9 0 0 4 0 553 911 1021 932 800 874 883 795 785 747 820 920 950 1040 934 840 958 869 741 659 763 1026 1046 932 967 1209 1254 1183 1314 1273 1144 905 920 1149 1066 1079 952 1179 1282 1414 1570 1470 1468 1275 1005 988 1047 1140 1279 1321 1556 1414 1026 722 578 465 452 450 473 340 308 184 82
2 2 0 19 138 98 24 25 47 8 1 10 2 0 0 0 0 0 0 0 0 0 0 56 804 725 880 800 868 1066 893 688 588 661 717 798 786 657 779 740 596 768 810 812 786 1052 984 1134 1309 1255 1159 1238 1266 1282 888 848 1121 1021 1189 1175 1179 1253 1428 1214 1106 1030 908 848 952 1044 1164 1398 1385 1288 1062 784 730 529 535 896 958 540 320 203 117
22 25 13 11 97 57 6 2 3 6 0 0 0 8 6 0 0 0 0 0 0 0 0 0 231 724 827 724 1137 1180 978 528 617 546 485 410 414 414 415 470 593 684 678 612 581 687 727 777 862 969 1062 1099 1102 1032 640 389 816 1104 1142 1147 1130 1378 1155 1040 994 817 691 683 816 968 1014 963 891 952 969 874 797 848 622 644 974 972 673 547 339
28 70 28 42 12 46 112 3 13 11 0 0 0 0 0 0 0 0 0 0 0 0 0 0 2 5 0 0 463 1020 1189 444 307 26 0 0 0 0 359 463 464 532 587 607 622 633 705 879 751 792 884 990 869 458 475 400 653 992 1311 1306 1268 1114 957 987 841 790 798 908 989 965 1180 1240 1218 1098 1077 1160 854 717 933 919 947 1126 836 496 596
11 60 66 36 14 1 19 24 4 5 2 0 0 0 0 0 2 0 0 0 0 0 0 0 0 0 45 243 40 757 625 398 104 0 0 0 0 0 0 121 318 440 437 487 715 611 640 609 620 643 659 657 547 452 611 623 651 907 1093 1190 1248 926 826 896 860 763 717 835 1128 1119 1125 1101 1123 1211 1203 1195 1124 898 831 986 990 884 1100 933 914
1 16 29 2 1 22 39 28 14 1 2 1 0 0 0 0 2 0 0 0 0 0 0 0 0 2 0 0 22 334 563 283 0 0 0 0 0 0 0 0 0 222 361 473 470 476 518 592 632 611 585 534 496 474 555 830 964 1096 1099 1033 878 933 1049 1170 966 839 863 784 972 1121 1081 1016 1067 1132 1113 1068 1105 1069 908 840 840 833 886 1101 1136
0 4 8 15 18 10 26 39 1 3 5 5 0 0 0 0 0 0 2 0 0 0 0 0 0 0 2 81 3 35 363 138 0 0 0 0 0 0 0 0 0 0 151 253 206 298 333 446 510 544 577 582 560 540 549 793 1029 1121 1170 944 945 1114 1219 1091 1037 927 756 765 805 860 936 1004 1174 1288 1210 1085 987 1144 1125 948 852 781 845 1033 1150
0 12 5 5 5 2 3 7 22 36 32 1 2 0 0 0 0 0 0 0 0 0 0 0 0 0 7 0 0 0 284 153 15 0 0 0 0 0 0 0 0 0 48 157 0 0 33 152 273 384 434 466 543 605 583 553 765 1053 1122 1093 1101 1189 1076 1047 1032 950 971 1025 978 923 1035 1111 1023 1173 1180 1028 1099 995 1008 1030 1057 1144 1128 1130 1189
8 1 16 12 14 5 3 40 105 113 39 34 3 0 7 8 5 0 0 0 0 0 0 0 0 0 0 0 0 5 65 88 25 0 0 0 0 0 0 0 0 0 0 0 0 0 0 0 0 0 3 198 430 524 532 515 542 670 913 1067 968 1011 1028 1063 1134 1046 1075 1012 1069 1119 1044 1097 1092 1054 1624 1248 993 882 866 872 855 872 969 1123 1059
19 0 0 0 1 7 63 1 52 36 62 30 18 34 33 18 31 12 7 0 0 0 0 0 0 0 0 0 0 0 0 0 75 96 76 64 102 86 71 28 0 0 0 0 0 0 0 0 0 0 0 0 0 0 164 290 515 565 562 559 717 954 1109 1166 1088 1008 1056 1109 1047 1028 1038 1025 1051 932 1578 1325 1075 897 836 803 729 662 795 948 1013
0 0 1 0 0 1 2 2 8 14 23 15 13 26 38 5 4 28 17 13 0 0 0 44 0 0 0 0 0 0 0 0 0 0 0 0 0 0 0 0 0 0 0 0 0 0 0 0 0 0 1 7 38 26 55 282 354 345 366 414 458 522 716 929 1041 996 960 913 999 1029 1122 1042 1074 972 1016 1246 1086 911 730 621 573 648 715 887 959
0 0 0 0 0 0 0 4 0 0 0 3 3 0 0 0 0 0 28 0 0 0 0 4 0 0 0 0 0 0 0 0 0 0 0 0 0 0 0 0 0 0 0 0 0 0 0 0 0 0 0 0 20 120 206 330 394 417 405 406 421 441 498 594 709 795 765 731 734 870 962 1035 1099 1031 857 793 965 1046 888 625 738 777 884 917 893
2 0 0 4 3 0 0 0 0 0 0 0 0 1 2 0 0 0 0 0 0 0 0 0 0 0 0 0 0 0 0 0 0 0 0 0 0 0 0 0 0 0 0 0 0 0 0 0 0 0 0 0 0 0 31 158 175 362 439 514 511 477 451 419 438 400 370 425 460 558 708 831 917 915 951 930 913 901 992 914 759 917 976 996 916
6 6 1 0 0 0 0 0 0 0 0 0 0 0 0 0 10 0 0 0 0 0 0 0 0 0 0 0 0 0 0 0 0 0 0 0 0 0 0 0 0 0 0 0 0 0 0 0 0 0 0 0 0 0 0 2 76 194 209 254 470 498 460 455 408 313 289 336 416 478 533 624 711 787 807 822 949 924 821 899 927 938 967 910 878
4 7 2 0 0 0 0 0 0 0 0 0 0 0 0 0 0 0 0 0 0 0 0 0 0 0 0 0 0 0 0 0 0 0 0 0 0 0 0 0 0 0 0 0 0 0 0 0 0 0 0 0 0 0 0 0 3 45 187 258 284 450 483 446 356 310 272 291 347 402 470 493 541 588 684 714 711 838 754 696 703 744 766 778 780
1 6 5 2 0 0 0 0 0 0 0 0 0 0 0 0 0 0 0 0 0 0 0 0 0 0 0 0 0 0 0 0 0 0 0 0 0 0 0 0 0 0 0 0 0 0 0 0 0 0 0 0 0 0 0 0 0 2 64 112 164 272 507 536 448 297 76 309 318 364 444 505 554 526 503 623 623 768 762 756 700 639 578 571 611
4 2 4 3 0 0 0 0 0 0 0 0 0 0 0 0 0 0 0 0 0 0 0 0 0 0 0 0 0 0 0 0 0 0 0 0 0 0 0 0 0 0 0 0 0 0 0 0 0 0 0 0 0 0 0 0 0 0 0 42 131 188 258 559 618 557 545 492 440 380 329 428 555 595 585 543 580 517 712 736 659 668 620 504 442
0 0 0 2 3 0 1 3 2 0 0 0 0 0 0 0 0 0 0 0 0 0 0 0 0 0 0 0 0 0 0 0 0 0 0 0 0 0 0 0 0 0 0 0 0 0 0 0 0 0 0 0 0 0 0 0 0 0 0 0 5 48 93 182 504 734 719 633 538 471 438 368 496 585 606 593 540 600 662 630 644 577 565 521 481
0 2 0 0 0 2 6 8 5 3 1 0 0 0 0 0 0 0 0 0 0 0 0 0 0 0 0 0 0 0 0 0 0 0 0 0 0 0 0 0 0 0 0 0 0 0 0 0 0 0 0 0 0 0 0 0 0 0 0 0 0 2 38 60 44 16 504 682 626 570 522 452 438 512 542 558 557 544 606 620 599 619 583 567 581
6 1 3 19 23 30 32 34 0 0 0 0 0 0 0 0 0 0 0 0 0 0 0 0 0 0 0 0 0 0 0 0 0 0 0 0 0 0 0 0 0 0 0 0 0 0 0 0 0 0 0 0 0 0 0 0 0 0 0 0 0 0 0 0 0 2 96 267 741 735 638 556 465 438 467 497 512 532 546 632 570 553 594 581 502
24 9 6 0 7 31 26 46 29 13 4 2 0 0 0 0 0 0 0 0 0 0 0 0 0 0 0 0 0 0 0 0 0 0 0 0 0 0 0 0 0 0 0 0 0 0 0 0 0 0 0 0 0 0 0 0 0 0 0 0 0 0 0 1 5 5 2 17 107 526 676 583 514 447 439 450 496 510 535 674 660 650 652 600 499
13 18 0 5 46 36 4 7 1 0 0 0 0 0 0 0 0 0 0 0 0 0 0 0 0 0 0 0 0 0 0 0 0 0 0 0 0 0 0 0 0 0 0 0 0 0 0 0 0 0 0 0 0 0 0 0 0 0 0 0 0 0 0 0 2 75 64 25 99 374 528 659 654 566 489 454 480 546 564 595 611 568 524 542 520
0 0 0 0 5 4 10 12 12 9 4 3 1 0 1 1 1 0 0 1 4 4 7 0 1 0 0 0 0 3 4 0 0 1 0 0 0 0 0 0 7 6 0 0 0 0 2 4 6 3 0 0 0 1 2 3 0 0 0 0 0 0 0 0 0 4 42 141 213 368 494 542 630 685 630 567 531 519 570 689 685 651 649 582 518
1 0 0 0 0 0 0 0 0 0 0 2 9 9 0 1 4 11 6 1 4 3 0 0 2 4 22 2 2 1 0 9 18 23 24 27 27 29 18 0 23 23 26 9 1 2 9 19 22 27 19 8 2 0 0 0 0 0 0 0 0 0 0 0 0 0 12 89 75 239 421 530 551 593 617 601 543 485 518 568 570 562 543 526 521
0 0 0 0 0 0 0 0 0 0 0 0 0 0 0 0 0 0 4 6 4 2 1 2 0 2 1 0 0 1 10 2 1 0 1 2 4 4 3 0 0 0 0 0 0 0 0 0 0 0 0 0 0 0 0 0 0 0 0 0 0 0 0 0 0 0 2 40 55 89 0 41 299 466 576 550 520 475 436 480 512 525 535 520 463
0 0 0 0 0 0 0 0 0 0 0 0 3 3 1 0 0 0 2 8 16 13 13 6 0 0 0 0 0 0 0 0 0 1 1 0 0 0 0 0 0 0 0 0 0 0 0 0 0 0 0 0 0 0 0 0 0 0 0 0 0 0 0 0 0 0 0 4 44 99 42 71 48 50 139 440 505 461 409 371 397 373 329 257 159
1 0 0 2 0 1 1 0 0 0 0 0 0 0 0 0 0 0 0 3 2 10 9 1 0 0 0 0 0 0 0 0 0 0 0 0 0 0 0 0 0 0 0 0 0 0 0 0 0 0 0 0 0 0 0 0 0 0 0 0 0 0 0 0 0 0 0 0 4 31 69 77 83 119 145 46 166 296 411 381 337 256 191 130 100
1 2 1 4 2 3 2 2 0 1 2 2 2 2 1 1 0 0 0 0 1 6 3 0 0 0 0 0 0 0 0 0 0 0 0 0 0 0 0 0 0 0 0 0 0 0 0 0 0 0 0 0 0 0 0 0 0 0 0 0 0 0 0 0 0 0 0 0 0 3 7 23 22 10 14 9 6 19 120 278 320 296 259 201 179
3 1 3 6 6 1 1 1 0 2 2 2 2 2 3 3 1 1 2 2 2 5 7 5 2 1 0 0 0 0 0 0 0 0 0 0 0 0 0 0 0 0 0 0 0 0 0 0 0 0 0 0 0 0 0 0 0 0 1 0 1 1 1 0 0 0 0 0 0 0 0 0 0 0 4 7 3 7 18 62 175 237 227 182 155
0 0 0 0 0 0 0 0 0 0 1 0 0 3 2 3 3 2 1 1 2 2 4 4 5 4 3 4 4 0 0 0 0 0 0 0 0 1 1 3 2 2 1 0 0 0 0 0 2 3 4 3 2 0 0 0 0 0 0 0 0 0 0 0 0 0 0 0 0 1 2 3 2 1 0 2 4 3 4 4 19 62 118 147 175
0 0 0 0 0 0 0 0 1 1 1 2 1 14 4 3 1 2 2 2 1 3 5 5 4 7 11 13 13 10 6 7 7 7 9 11 4 7 3 1 0 0 0 0 2 8 9 9 9 7 6 5 5 5 4 2 3 2 1 0 0 0 0 0 0 0 0 0 1 1 2 4 4 4 4 6 7 8 9 6 5 19 42 94 196
0 0 0 0 0 0 0 0 0 0 0 1 1 2 2 2 2 1 1 2 3 5 5 3 1 2 4 6 6 2 2 2 2 1 1 0 0 0 0 0 0 0 0 2 4 6 4 1 1 2 2 1 1 1 0 0 2 5 5 4 5 3 1 0 0 1 1 1 4 1 1 1 0 0 0 0 0 0 2 4 7 20 50 70 75
0 0 0 0 0 0 0 0 0 0 0 0 0 1 2 2 2 0 0 1 2 2 3 2 2 1 1 1 1 1 3 3 2 0 1 1 1 3 3 2 2 2 4 3 2 1 0 0 2 2 3 2 2 3 3 3 3 5 3 0 0 0 0 0 0 1 1 1 1 0 1 0 0 0 0 0 0 6 24 36 52 63 63 52 40
Wind_Speed
53 55 55 49 48 48 46 47 46 43 39 40 40 39 36 32 27 25 23 20 21 20 19 18 19 18 21 23 24 21 18 16 16 16 16 14 13 12 13 17 20 20 17 14 12 11 11 11 11 12 14 14 13 13 13 13 13 13 13 18 15 10 14 14 13 14 15 11 11 10 6 10 12 12 12 10 7 6 12 12 nan nan nan nan nan
53 53 55 51 49 49 45 46 45 43 44 43 41 35 34 32 27 26 24 22 21 20 19 19 17 18 18 20 23 23 20 19 18 15 15 14 14 13 12 15 17 17 15 13 11 12 13 11 8 11 14 15 13 12 12 13 15 15 15 18 14 13 14 13 12 14 12 13 11 12 8 10 14 nan 11 10 9 10 12 nan nan nan nan nan nan
52 52 52 54 52 50 46 42 41 41 44 47 43 37 36 36 32 31 30 27 22 20 19 20 18 18 17 19 20 23 23 21 20 18 16 15 14 13 14 15 14 13 14 15 15 15 16 13 10 13 16 15 13 12 13 13 16 16 18 16 15 15 13 11 14 16 15 14 14 11 10 12 13 nan nan 10 12 12 nan nan nan nan nan nan nan
54 53 53 53 52 52 46 44 43 43 43 46 45 42 42 39 36 34 36 33 25 21 21 23 24 18 17 18 19 21 22 23 22 19 17 15 13 14 15 14 13 13 15 17 15 15 15 13 12 16 17 14 13 14 15 16 17 18 18 19 21 15 14 14 13 14 18 18 13 11 11 15 13 nan nan nan 12 11 nan nan nan 7 nan nan nan
57 56 57 58 57 54 50 47 42 41 41 43 44 45 42 40 39 36 36 35 31 27 24 24 24 20 19 19 18 19 19 21 22 21 19 16 15 15 13 12 13 14 15 14 14 13 12 13 14 16 15 13 13 14 15 16 16 17 17 20 19 15 17 15 19 18 18 18 15 14 17 16 14 nan nan nan nan nan nan nan 9 12 nan nan nan
nan 57 56 58 59 56 56 52 44 40 40 40 40 43 42 40 39 38 37 35 36 32 27 23 25 21 19 19 20 19 18 20 20 21 20 18 16 15 14 14 14 14 12 11 13 13 14 14 14 14 15 14 14 14 15 15 15 16 18 20 18 18 17 16 16 18 22 20 17 20 20 17 18 17 14 nan nan nan nan 12 12 nan nan nan nan
63 59 57 58 59 56 53 52 48 43 41 41 39 41 43 45 44 38 36 36 39 38 27 26 26 23 21 19 20 20 19 19 18 19 19 18 17 16 15 14 13 13 12 11 14 14 14 14 14 15 16 15 16 16 16 16 15 19 18 18 20 20 20 17 15 19 19 17 18 20 18 18 17 17 16 14 16 nan nan nan nan nan nan nan nan
nan nan nan nan nan 59 56 54 51 46 41 41 41 41 42 43 38 33 37 37 36 35 30 26 25 25 23 22 23 20 19 19 18 18 19 19 17 16 15 13 12 12 13 12 13 14 14 14 14 14 17 18 17 18 18 18 19 19 17 21 23 22 18 18 19 20 20 17 17 21 18 19 16 19 17 16 19 nan nan nan nan nan nan nan nan
nan nan nan nan nan 56 59 56 52 50 45 42 41 41 42 42 39 38 36 37 38 36 34 31 30 29 25 24 22 16 18 19 20 20 20 19 18 17 14 13 12 12 11 11 13 14 14 14 15 16 17 17 17 17 18 19 20 19 20 23 26 23 19 19 21 19 19 19 22 24 18 15 16 17 17 16 16 15 nan nan nan nan nan nan nan
nan nan nan nan nan 52 57 58 54 52 48 42 39 40 41 41 39 40 39 40 43 39 38 33 34 36 35 30 32 32 27 25 23 21 22 22 21 20 16 14 13 13 12 12 15 15 14 16 16 12 14 14 16 21 21 19 22 22 20 25 25 23 20 16 19 19 21 22 21 20 18 16 17 17 18 17 17 16 15 16 nan 19 nan nan nan
nan nan nan nan nan nan 53 nan nan nan 48 44 40 36 38 39 40 40 42 44 43 43 40 35 36 35 37 39 37 36 35 38 45 31 21 22 24 22 18 17 16 13 13 15 16 15 14 16 19 17 16 17 18 22 25 29 28 30 30 29 25 23 22 18 18 21 19 21 21 20 19 19 16 17 16 14 14 14 14 15 18 nan nan nan nan
53 54 nan nan nan nan 50 nan nan 52 48 46 42 39 39 39 38 37 43 46 45 45 43 40 38 36 36 34 32 33 36 39 38 38 36 28 25 24 22 20 21 18 16 17 14 12 14 17 19 18 18 18 20 22 25 28 30 30 31 32 35 34 27 22 18 20 22 23 22 20 19 18 17 17 15 14 14 16 15 16 17 20 nan nan nan
nan nan nan 47 nan nan 48 49 49 nan 46 nan 45 42 nan 45 39 34 36 43 44 44 45 42 36 33 36 34 31 30 31 26 21 26 25 33 35 30 34 33 27 25 23 18 13 14 16 18 18 16 16 16 20 22 23 26 28 30 31 32 33 35 35 25 17 19 26 25 22 22 18 19 17 17 17 17 19 19 20 19 17 19 20 nan nan
nan nan 51 47 nan nan 45 47 46 nan nan nan 46 47 43 nan 42 39 37 37 39 39 39 35 33 33 34 33 32 31 30 31 33 33 27 23 26 30 33 28 24 23 21 21 18 14 16 17 19 18 19 20 20 22 23 24 25 27 26 25 25 29 29 24 17 16 23 23 23 20 19 18 18 18 20 21 20 19 19 17 20 20 20 nan nan
nan nan nan 42 nan nan nan nan nan nan nan nan nan 44 42 40 42 42 39 40 38 36 37 36 35 34 33 32 33 34 32 29 30 31 34 29 27 25 25 19 19 23 18 19 23 25 21 19 19 19 23 23 22 23 24 23 24 25 25 23 22 22 23 21 18 18 21 22 23 23 23 22 21 23 21 18 18 19 18 17 20 24 23 22 28
nan nan nan 35 nan nan nan nan nan nan nan 49 nan nan nan nan 38 39 39 41 40 36 34 38 36 35 31 31 35 35 34 33 33 32 31 30 23 22 22 23 25 19 20 26 28 24 24 28 28 30 31 30 28 26 25 26 25 25 22 21 19 19 19 19 18 16 18 19 21 22 22 23 22 21 22 21 21 22 24 24 24 24 24 21 24
nan nan 44 30 25 nan nan nan nan nan nan nan nan nan nan nan nan nan 39 41 43 41 39 38 36 35 31 31 36 39 37 36 33 31 34 34 29 26 27 28 27 29 28 27 25 25 25 26 24 25 23 23 21 20 25 27 26 23 20 19 21 19 19 23 23 22 19 13 12 15 21 17 18 22 22 21 22 23 24 22 17 20 21 19 nan
nan nan nan 35 20 nan nan nan nan nan nan nan nan nan nan nan nan nan nan nan 44 44 44 43 42 40 37 35 38 39 39 38 37 34 35 37 35 31 32 32 32 33 32 29 26 25 23 22 22 22 24 29 23 20 22 27 24 21 17 22 19 16 17 19 19 21 25 24 16 11 14 15 16 19 20 19 21 23 21 16 17 20 18 20 nan
nan nan nan nan 23 21 nan nan nan nan nan nan nan nan nan nan nan nan nan nan nan nan 46 44 44 42 40 40 39 38 39 38 37 35 33 34 34 33 33 34 33 32 28 23 22 24 24 33 33 30 29 33 31 26 23 23 24 21 21 19 13 14 14 16 16 17 17 17 16 17 20 20 19 20 17 16 19 18 17 19 20 18 18 20 nan
nan nan nan nan 28 nan nan nan nan nan nan nan nan nan nan nan nan nan nan nan nan nan nan nan 42 42 41 40 40 40 41 40 39 38 34 33 32 35 37 36 33 27 26 29 27 28 30 28 31 37 37 35 33 33 29 23 22 20 20 18 14 12 16 15 14 15 15 15 16 14 15 17 19 18 21 20 19 16 17 19 19 19 20 20 20
nan nan nan nan nan nan nan nan nan nan nan nan nan nan nan nan nan nan nan nan nan nan nan nan 41 43 41 42 43 43 44 45 42 40 36 34 35 37 36 34 31 33 36 32 29 28 29 29 31 34 38 36 33 33 31 23 20 21 19 18 18 18 19 15 13 13 14 14 15 15 14 16 15 16 17 18 18 18 17 18 18 20 21 21 21
nan nan nan nan nan nan 30 nan nan nan nan nan nan nan nan nan nan nan nan nan nan nan nan nan nan nan nan nan 49 49 47 48 44 nan nan nan nan nan 37 38 41 37 35 33 31 30 30 28 31 31 36 38 38 36 31 23 20 23 18 23 27 24 19 17 15 13 12 12 12 11 12 11 13 12 13 14 16 16 17 18 17 19 19 21 21
nan nan nan nan nan nan nan nan nan nan nan nan nan nan nan nan nan nan nan nan nan nan nan nan nan nan nan 48 nan 51 49 48 47 nan nan nan nan nan nan 42 41 38 36 33 33 32 33 34 31 32 33 35 37 37 34 31 28 21 19 21 22 21 20 19 18 15 11 8 8 8 9 9 10 10 11 12 14 15 16 17 18 17 19 19 18
nan nan nan nan nan nan nan nan nan nan nan nan nan nan nan nan nan nan nan nan nan nan nan nan nan nan nan nan nan 51 50 48 nan nan nan nan nan nan nan nan nan 37 35 33 32 32 33 33 29 27 30 32 35 36 36 32 26 18 18 25 19 19 20 21 19 16 12 9 8 7 6 8 9 8 8 10 12 15 16 17 17 16 17 18 20
nan nan nan nan nan nan nan nan nan nan nan nan nan nan nan nan nan nan nan nan nan nan nan nan nan nan nan nan nan nan 53 50 nan nan nan nan nan nan nan nan nan nan 35 34 33 33 30 29 29 28 30 30 32 34 34 32 28 24 22 27 27 22 19 21 19 18 15 12 11 9 8 8 8 9 10 10 11 15 18 18 18 17 17 17 20
nan nan nan nan nan nan nan nan nan nan nan nan nan nan nan nan nan nan nan nan nan nan nan nan nan nan nan nan nan nan 57 54 nan nan nan nan nan nan nan nan nan nan nan 37 nan nan nan 31 30 29 28 29 30 30 32 32 30 30 24 24 25 22 21 22 21 18 16 15 13 12 11 12 11 11 12 12 12 11 14 16 18 17 18 19 20
nan nan nan nan nan nan nan nan 30 32 nan nan nan nan nan nan nan nan nan nan nan nan nan nan nan nan nan nan nan nan nan nan nan nan nan nan nan nan nan nan nan nan nan nan nan nan nan nan nan nan nan 28 30 32 32 35 35 34 30 26 23 22 22 23 21 20 19 17 15 15 16 15 15 12 14 14 12 11 13 14 16 15 17 18 20
nan nan nan nan nan nan nan nan nan nan nan nan nan nan nan nan nan nan nan nan nan nan nan nan nan nan nan nan nan nan nan nan nan nan nan nan 47 nan nan nan nan nan nan nan nan nan nan nan nan nan nan nan nan nan 30 30 30 30 29 28 26 25 25 24 22 20 20 20 19 18 19 18 16 14 16 15 14 15 16 16 16 15 15 16 18
nan nan nan nan nan nan nan nan nan nan nan nan nan nan nan nan nan nan nan nan nan nan nan nan nan nan nan nan nan nan nan nan nan nan nan nan nan nan nan nan nan nan nan nan nan nan nan nan nan nan nan nan nan nan nan 29 29 28 29 28 28 28 27 26 23 21 21 22 20 20 19 21 19 19 19 18 17 17 19 18 18 18 18 19 16
nan nan nan nan nan nan nan nan nan nan nan nan nan nan nan nan nan nan nan nan nan nan nan nan nan nan nan nan nan nan nan nan nan nan nan nan nan nan nan nan nan nan nan nan nan nan nan nan nan nan nan nan nan 30 30 30 29 29 28 29 28 28 26 25 24 23 23 22 22 22 21 22 21 22 21 21 21 22 22 22 22 24 26 24 19
nan nan nan nan nan nan nan nan nan nan nan nan nan nan nan nan nan nan nan nan nan nan nan nan nan nan nan nan nan nan nan nan nan nan nan nan nan nan nan nan nan nan nan nan nan nan nan nan nan nan nan nan nan nan nan 32 32 31 30 30 28 28 27 26 26 27 27 25 23 22 23 23 22 24 26 27 25 27 26 24 24 26 27 26 23
nan nan nan nan nan nan nan nan nan nan nan nan nan nan nan nan nan nan nan nan nan nan nan nan nan nan nan nan nan nan nan nan nan nan nan nan nan nan nan nan nan nan nan nan nan nan nan nan nan nan nan nan nan nan nan nan nan 34 33 33 31 30 29 28 29 30 29 28 26 25 25 24 24 24 31 31 28 24 25 29 27 26 28 31 28
nan nan nan nan nan nan nan nan nan nan nan nan nan nan nan nan nan nan nan nan nan nan nan nan nan nan nan nan nan nan nan nan nan nan nan nan nan nan nan nan nan nan nan nan nan nan nan nan nan nan nan nan nan nan nan nan nan nan 35 34 33 33 32 32 35 33 31 31 31 30 29 28 27 26 29 33 36 27 28 30 29 27 30 32 32
nan nan nan nan nan nan nan nan nan nan nan nan nan nan nan nan nan nan nan nan nan nan nan nan nan nan nan nan nan nan nan nan nan nan nan nan nan nan nan nan nan nan nan nan nan nan nan nan nan nan nan nan nan nan nan nan nan nan nan 35 34 34 34 36 37 35 nan 35 34 34 33 32 31 30 29 31 36 33 30 29 30 30 30 30 30
nan nan nan nan nan nan nan nan nan nan nan nan nan nan nan nan nan nan nan nan nan nan nan nan nan nan nan nan nan nan nan nan nan nan nan nan nan nan nan nan nan nan nan nan nan nan nan nan nan nan nan nan nan nan nan nan nan nan nan nan 36 36 36 37 37 36 36 37 37 36 35 34 34 34 33 32 33 35 34 31 31 32 30 29 30
nan nan nan nan nan nan nan nan nan nan nan nan nan nan nan nan nan nan nan nan nan nan nan nan nan nan nan nan nan nan nan nan nan nan nan nan nan nan nan nan nan nan nan nan nan nan nan nan nan nan nan nan nan nan nan nan nan nan nan nan nan nan nan 38 38 38 38 38 38 38 37 37 37 37 36 35 34 33 34 34 33 33 31 31 31
nan nan nan nan nan nan nan nan nan nan nan nan nan nan nan nan nan nan nan nan nan nan nan nan nan nan nan nan nan nan nan nan nan nan nan nan nan nan nan nan nan nan nan nan nan nan nan nan nan nan nan nan nan nan nan nan nan nan nan nan nan nan nan nan nan nan 42 40 39 39 39 39 40 39 38 37 37 36 35 36 35 33 32 31 33
nan nan nan nan nan nan nan nan nan nan nan nan nan nan nan nan nan nan nan nan nan nan nan nan nan nan nan nan nan nan nan nan nan nan nan nan nan nan nan nan nan nan nan nan nan nan nan nan nan nan nan nan nan nan nan nan nan nan nan nan nan nan nan nan nan nan nan 43 42 41 41 41 41 41 41 39 38 38 37 37 38 35 33 32 33
nan nan nan nan nan nan nan nan nan nan nan nan nan nan nan nan nan nan nan nan nan nan nan nan nan nan nan nan nan nan nan nan nan nan nan nan nan nan nan nan nan nan nan nan nan nan nan nan nan nan nan nan nan nan nan nan nan nan nan nan nan nan nan nan nan nan nan nan 44 44 43 43 42 42 43 42 40 40 39 38 40 39 37 37 35
nan nan nan nan nan nan nan nan nan nan nan nan nan nan nan nan nan nan nan nan nan nan nan nan nan nan nan nan nan nan nan nan nan nan nan nan nan nan nan nan nan nan nan nan nan nan nan nan nan nan nan nan nan nan nan nan nan nan nan nan nan nan nan nan nan nan nan nan nan 46 46 45 44 44 45 44 43 42 41 40 41 41 39 38 36
nan nan nan nan nan nan nan nan nan nan nan nan nan nan nan nan nan nan nan nan nan nan nan nan nan nan nan nan nan nan nan nan nan nan nan nan nan nan nan nan nan nan nan nan nan nan nan nan nan nan nan nan nan nan nan nan nan nan nan nan nan nan nan nan nan nan nan 48 48 49 49 48 49 49 47 46 46 45 44 44 43 43 43 43 40
nan nan nan nan nan nan nan nan nan nan nan nan nan nan nan nan nan nan nan nan nan nan nan nan nan nan nan nan nan nan nan nan nan nan nan nan nan nan nan nan nan nan nan nan nan nan nan nan nan nan nan nan nan nan nan nan nan nan nan nan nan nan nan nan nan nan nan nan nan 52 53 53 52 52 50 51 51 49 48 47 45 44 44 44 44
nan nan nan nan nan nan nan nan nan nan nan nan nan nan nan nan nan nan nan nan nan nan nan nan nan nan nan nan nan nan nan nan nan nan nan nan nan nan nan nan nan nan nan nan nan nan nan nan nan nan nan nan nan nan nan nan nan nan nan nan nan nan nan nan nan nan nan nan nan nan nan nan 57 54 54 55 53 53 52 50 49 48 47 46 46
nan nan nan nan nan nan nan nan nan nan nan nan nan nan nan nan nan nan nan nan nan nan nan nan nan nan nan nan nan nan nan nan nan nan nan nan nan nan nan nan nan nan nan nan nan nan nan nan nan nan nan nan nan nan nan nan nan nan nan nan nan nan nan nan nan nan nan nan nan nan nan nan nan nan 57 57 56 55 54 53 53 52 50 48 47
nan nan nan nan nan nan nan nan nan nan nan nan nan nan nan nan nan nan nan nan nan nan nan nan nan nan nan nan nan nan nan nan nan nan nan nan nan nan nan nan nan nan nan nan nan nan nan nan nan nan nan nan nan nan nan nan nan nan nan nan nan nan nan nan nan nan nan nan nan nan nan nan nan 60 59 nan 59 56 57 54 53 54 54 50 nan
nan nan nan nan nan nan nan nan nan nan nan nan nan nan nan nan nan nan nan nan nan nan nan nan nan nan nan nan nan nan nan nan nan nan nan nan nan nan nan nan nan nan nan nan nan nan nan nan nan nan nan nan nan nan nan nan nan nan nan nan nan nan nan nan nan nan nan nan nan nan nan nan nan nan nan nan nan nan 56 55 54 54 54 53 49
nan nan nan nan nan nan nan nan nan nan nan nan nan nan nan nan nan nan nan nan nan nan nan nan nan nan nan nan nan nan nan nan nan nan nan nan nan nan nan nan nan nan nan nan nan nan nan nan nan nan nan nan nan nan nan nan nan nan nan nan nan nan nan nan nan nan nan nan nan nan nan nan nan nan nan nan nan nan nan nan 56 54 53 54 53
nan nan nan nan nan nan nan nan nan nan nan nan nan nan nan nan nan nan nan nan nan nan nan nan nan nan nan nan nan nan nan nan nan nan nan nan nan nan nan nan nan nan nan nan nan nan nan nan nan nan nan nan nan nan nan nan nan nan nan nan nan nan nan nan nan nan nan nan nan nan nan nan nan nan nan nan nan nan nan nan nan nan 54 54 54
nan nan nan nan nan nan nan nan nan nan nan nan nan nan nan nan nan nan nan nan nan nan nan nan nan nan nan nan nan nan nan nan nan nan nan nan nan nan nan nan nan nan nan nan nan nan nan nan nan nan nan nan nan nan nan nan nan nan nan nan nan nan nan nan nan nan nan nan nan nan nan nan nan nan nan nan nan nan nan nan nan nan nan nan 55
nan nan nan nan nan nan nan nan nan nan nan nan nan nan nan nan nan nan nan nan nan nan nan nan nan nan nan nan nan nan nan nan nan nan nan nan nan nan nan nan nan nan nan nan nan nan nan nan nan nan nan nan nan nan nan nan nan nan nan nan nan nan nan nan nan nan nan nan nan nan nan nan nan nan nan nan nan nan nan nan nan nan nan nan nan
nan nan nan nan nan nan nan nan nan nan nan nan nan nan nan nan nan nan nan nan nan nan nan nan nan nan nan nan nan nan nan nan nan nan nan nan nan nan nan nan nan nan nan nan nan nan nan nan nan nan nan nan nan nan nan nan nan nan nan nan nan nan nan nan nan nan nan nan nan nan nan nan nan nan nan nan nan nan nan nan nan nan nan nan nan
Wind_Direction
254 257 258 253 252 257 257 249 242 242 243 242 234 227 225 227 235 239 243 249 257 264 270 278 290 289 277 266 270 277 283 283 285 289 296 293 278 269 256 242 239 235 230 222 210 204 220 228 231 241 243 248 247 245 246 251 255 251 246 251 259 258 255 258 258 242 230 225 239 242 229 223 239 248 248 235 242 239 243 261 nan nan nan nan nan
254 257 261 263 259 259 258 257 248 243 242 244 249 248 247 250 241 240 244 244 245 253 264 261 275 285 279 273 271 275 282 282 284 288 292 296 286 265 256 250 245 243 240 236 225 221 232 237 234 246 245 248 244 246 248 250 254 252 249 256 260 259 262 263 253 252 246 229 237 233 225 233 239 nan 244 234 232 245 253 nan nan nan nan nan nan
251 256 258 261 261 257 257 257 258 255 246 241 241 243 246 252 258 253 246 239 232 236 247 255 260 270 274 272 270 272 277 279 282 289 294 298 294 277 259 254 252 247 247 243 236 233 238 233 234 245 246 246 246 248 253 254 253 252 252 259 264 260 260 243 248 259 259 242 239 244 228 229 231 nan nan 223 230 246 nan nan nan nan nan nan nan
247 249 252 255 257 260 256 256 253 256 254 247 242 241 242 244 248 260 261 249 236 225 232 245 248 255 260 268 270 269 274 272 276 282 289 293 293 281 267 260 255 248 247 243 234 232 238 236 234 245 250 249 250 254 253 254 252 251 253 251 250 238 238 242 245 250 255 249 239 248 232 227 229 nan nan nan 228 242 nan nan nan 218 nan nan nan
242 243 247 250 250 255 257 254 254 254 255 252 245 239 240 243 244 249 261 260 241 223 224 237 244 246 251 258 264 270 272 273 273 273 279 283 284 274 272 266 256 251 249 247 245 242 239 241 241 247 254 251 250 255 257 258 258 255 252 247 252 253 241 236 249 230 237 251 251 232 222 224 232 nan nan nan nan nan nan nan 244 225 nan nan nan
nan 239 242 245 248 249 254 257 257 257 255 254 247 240 239 242 243 242 250 255 250 236 222 228 239 241 248 256 262 267 271 268 268 268 273 272 271 273 268 264 262 258 252 250 254 254 242 240 238 245 256 251 246 248 253 258 254 254 248 252 256 256 249 248 251 245 225 231 246 236 217 209 224 215 221 nan nan nan nan 226 230 nan nan nan nan
237 238 239 243 242 246 250 252 254 254 252 252 249 241 239 241 239 240 245 246 250 247 232 218 231 240 246 251 259 266 267 267 262 260 264 267 266 269 267 266 262 254 250 249 249 251 243 236 235 232 247 248 246 246 246 246 245 246 247 255 254 245 244 240 241 243 247 235 231 231 232 206 216 222 216 225 225 nan nan nan nan nan nan nan nan
nan nan nan nan nan 239 244 248 250 253 253 250 248 249 249 245 247 246 244 241 246 246 239 229 226 231 236 243 246 246 258 262 259 254 252 254 255 257 263 261 258 251 250 249 247 247 240 229 231 230 239 245 245 245 245 245 242 248 245 251 252 243 237 243 238 241 254 245 235 245 213 210 218 215 216 221 228 nan nan nan nan nan nan nan nan
nan nan nan nan nan 236 239 241 246 248 250 251 250 250 251 244 237 240 240 240 241 237 231 225 215 221 227 232 239 245 246 249 251 248 244 244 247 248 254 255 254 257 256 247 247 247 240 234 232 232 242 249 257 249 251 250 247 248 247 250 250 242 230 229 239 238 242 242 238 242 234 210 220 222 215 223 227 232 nan nan nan nan nan nan nan
nan nan nan nan nan 236 238 239 240 243 247 250 250 247 248 248 240 236 240 239 241 244 241 234 226 216 214 217 219 217 224 236 241 249 242 235 237 235 238 241 249 253 248 242 239 239 233 236 239 244 246 255 258 247 252 252 245 245 246 251 256 251 243 231 237 234 238 243 242 245 249 239 231 226 220 221 225 228 228 223 nan 229 nan nan nan
nan nan nan nan nan nan 236 nan nan nan 240 244 251 246 244 246 241 237 238 237 240 242 240 235 235 233 225 221 218 217 214 214 206 205 235 242 232 229 228 231 241 240 235 236 240 237 232 237 235 240 240 240 245 254 250 252 248 248 247 255 259 263 257 246 244 248 243 243 243 237 233 239 230 227 229 233 229 235 232 225 226 nan nan nan nan
217 218 nan nan nan nan 238 nan nan 237 240 241 243 248 245 241 240 235 238 238 237 232 226 222 224 221 228 233 234 232 226 222 217 209 192 195 215 227 223 225 226 225 229 233 238 242 241 241 235 232 233 235 238 242 246 249 250 248 249 247 246 242 253 261 253 253 248 243 242 240 238 239 237 232 231 233 228 229 226 226 226 232 nan nan nan
nan nan nan 221 nan nan 238 239 239 nan 233 nan 248 249 nan 243 238 238 240 240 234 227 225 221 220 225 228 225 228 235 234 233 240 243 231 209 188 213 218 212 219 218 208 210 215 243 244 246 244 235 233 258 245 244 243 243 244 251 249 248 247 251 250 257 257 252 248 244 243 244 243 242 240 228 229 234 232 231 222 220 220 223 229 nan nan
nan nan 215 219 nan nan 232 238 236 nan nan nan 228 236 237 nan 235 238 242 238 226 223 226 226 224 229 234 235 228 223 227 226 226 216 210 227 212 202 222 212 206 213 202 184 188 225 251 250 253 244 241 245 239 246 244 245 247 245 243 242 244 250 254 260 266 258 248 245 252 252 249 242 242 238 234 241 248 246 239 228 222 221 222 nan nan
nan nan nan 215 nan nan nan nan nan nan nan nan nan 221 224 228 228 235 238 230 223 227 234 229 226 229 235 234 230 229 226 232 226 220 204 192 228 206 216 221 218 211 197 205 204 193 207 236 249 249 252 249 244 243 242 243 246 244 243 244 244 251 253 253 244 242 241 244 253 254 255 251 247 242 242 244 251 249 248 243 232 222 214 222 229
nan nan nan 203 nan nan nan nan nan nan nan 231 nan nan nan nan 230 236 237 234 232 241 242 233 228 231 232 230 231 226 224 230 237 238 226 207 204 226 207 214 223 211 209 213 216 204 196 201 215 226 225 226 221 235 235 239 240 241 245 247 245 246 254 259 274 255 242 239 246 252 251 248 255 257 254 250 248 247 240 228 223 223 216 217 236
nan nan 190 194 211 nan nan nan nan nan nan nan nan nan nan nan nan nan 237 238 240 245 247 240 234 237 242 238 233 232 227 224 230 232 228 221 210 213 215 215 215 220 225 219 213 209 203 219 207 224 237 240 245 246 228 232 233 238 233 238 242 243 246 244 249 255 254 251 256 262 262 254 254 267 270 269 259 258 251 240 226 229 229 222 nan
nan nan nan 184 198 nan nan nan nan nan nan nan nan nan nan nan nan nan nan nan 241 245 244 243 240 241 244 240 235 236 234 232 237 235 229 222 217 215 214 213 216 218 220 214 212 214 212 229 236 233 232 235 248 247 241 244 241 238 241 241 242 244 249 255 255 252 251 241 225 230 265 266 261 267 269 270 267 263 261 256 241 238 234 232 nan
nan nan nan nan 184 205 nan nan nan nan nan nan nan nan nan nan nan nan nan nan nan nan 241 245 244 244 241 240 244 241 237 234 240 240 234 227 221 217 214 214 214 220 220 219 220 225 224 226 231 235 233 238 241 236 235 233 238 248 253 253 246 247 255 262 265 267 264 258 246 237 236 245 244 242 243 256 264 262 254 254 251 250 248 241 nan
nan nan nan nan 186 nan nan nan nan nan nan nan nan nan nan nan nan nan nan nan nan nan nan nan 247 245 245 241 238 238 237 236 240 241 233 230 224 221 217 216 217 215 216 218 219 224 228 228 231 230 233 239 241 240 232 215 222 229 248 264 267 254 251 254 255 260 263 270 266 258 253 255 249 236 229 232 231 237 245 246 247 251 252 247 244
nan nan nan nan nan nan nan nan nan nan nan nan nan nan nan nan nan nan nan nan nan nan nan nan 241 245 242 239 238 236 237 237 236 239 234 229 225 225 223 221 217 214 217 218 220 222 227 226 230 230 235 237 246 251 252 248 229 225 224 243 253 250 255 254 261 278 269 272 268 266 264 259 247 237 232 233 237 237 236 239 239 245 250 247 246
nan nan nan nan nan nan 207 nan nan nan nan nan nan nan nan nan nan nan nan nan nan nan nan nan nan nan nan nan 233 234 237 241 235 nan nan nan nan nan 221 219 215 217 219 217 218 222 226 226 231 226 231 233 236 240 246 253 258 241 240 234 245 252 257 250 254 262 269 274 272 268 266 257 248 245 243 244 246 246 244 243 239 239 248 247 244
nan nan nan nan nan nan nan nan nan nan nan nan nan nan nan nan nan nan nan nan nan nan nan nan nan nan nan 232 nan 236 232 231 236 nan nan nan nan nan nan 220 215 214 214 219 223 226 224 230 232 233 233 235 236 243 248 246 240 245 246 248 258 270 264 258 256 251 250 268 280 285 281 273 261 252 252 256 257 258 254 249 244 240 245 252 255
nan nan nan nan nan nan nan nan nan nan nan nan nan nan nan nan nan nan nan nan nan nan nan nan nan nan nan nan nan 238 235 229 nan nan nan nan nan nan nan nan nan 208 213 218 223 226 228 230 230 230 234 237 241 243 250 248 247 258 257 255 253 256 255 258 260 264 266 265 267 264 265 271 267 260 264 270 270 271 267 261 254 251 249 249 252
nan nan nan nan nan nan nan nan nan nan nan nan nan nan nan nan nan nan nan nan nan nan nan nan nan nan nan nan nan nan 236 233 nan nan nan nan nan nan nan nan nan nan 213 217 221 227 230 234 235 232 232 235 239 248 248 251 258 254 248 256 258 256 257 258 256 255 259 259 259 257 253 252 255 269 282 283 275 268 268 265 264 263 259 257 255
nan nan nan nan nan nan nan nan nan nan nan nan nan nan nan nan nan nan nan nan nan nan nan nan nan nan nan nan nan nan 233 231 nan nan nan nan nan nan nan nan nan nan nan 216 nan nan nan 232 233 232 235 236 241 242 245 253 262 262 254 243 246 249 252 255 256 254 254 253 250 249 250 249 253 261 273 276 269 272 268 269 267 270 273 272 266
nan nan nan nan nan nan nan nan 218 223 nan nan nan nan nan nan nan nan nan nan nan nan nan nan nan nan nan nan nan nan nan nan nan nan nan nan nan nan nan nan nan nan nan nan nan nan nan nan nan nan nan 246 241 241 247 253 253 255 256 253 252 250 251 254 258 260 259 254 248 243 244 248 245 252 270 273 272 268 270 270 272 278 281 276 274
nan nan nan nan nan nan nan nan nan nan nan nan nan nan nan nan nan nan nan nan nan nan nan nan nan nan nan nan nan nan nan nan nan nan nan nan 228 nan nan nan nan nan nan nan nan nan nan nan nan nan nan nan nan nan 242 245 248 251 252 253 256 257 254 256 258 259 260 258 253 248 246 250 256 261 264 268 266 265 267 272 274 279 282 280 273
nan nan nan nan nan nan nan nan nan nan nan nan nan nan nan nan nan nan nan nan nan nan nan nan nan nan nan nan nan nan nan nan nan nan nan nan nan nan nan nan nan nan nan nan nan nan nan nan nan nan nan nan nan nan nan 248 248 251 254 254 255 256 255 255 258 262 266 265 263 260 257 253 250 252 255 261 262 262 265 269 270 273 272 261 254
nan nan nan nan nan nan nan nan nan nan nan nan nan nan nan nan nan nan nan nan nan nan nan nan nan nan nan nan nan nan nan nan nan nan nan nan nan nan nan nan nan nan nan nan nan nan nan nan nan nan nan nan nan 245 247 248 248 251 253 257 259 259 257 257 257 259 261 264 267 267 265 263 261 257 252 250 253 257 261 267 265 269 271 276 276
nan nan nan nan nan nan nan nan nan nan nan nan nan nan nan nan nan nan nan nan nan nan nan nan nan nan nan nan nan nan nan nan nan nan nan nan nan nan nan nan nan nan nan nan nan nan nan nan nan nan nan nan nan nan nan 247 249 249 250 256 259 261 261 258 257 256 257 260 262 265 269 269 266 265 264 257 253 250 248 259 263 268 273 275 271
nan nan nan nan nan nan nan nan nan nan nan nan nan nan nan nan nan nan nan nan nan nan nan nan nan nan nan nan nan nan nan nan nan nan nan nan nan nan nan nan nan nan nan nan nan nan nan nan nan nan nan nan nan nan nan nan nan 249 249 250 254 258 260 260 259 257 256 259 262 263 264 265 265 264 266 268 263 260 262 261 263 267 270 272 273
nan nan nan nan nan nan nan nan nan nan nan nan nan nan nan nan nan nan nan nan nan nan nan nan nan nan nan nan nan nan nan nan nan nan nan nan nan nan nan nan nan nan nan nan nan nan nan nan nan nan nan nan nan nan nan nan nan nan 248 250 251 254 258 259 261 261 262 262 262 262 264 264 264 262 262 268 271 268 266 264 266 262 264 270 272
nan nan nan nan nan nan nan nan nan nan nan nan nan nan nan nan nan nan nan nan nan nan nan nan nan nan nan nan nan nan nan nan nan nan nan nan nan nan nan nan nan nan nan nan nan nan nan nan nan nan nan nan nan nan nan nan nan nan nan 248 249 250 253 258 261 263 nan 263 263 262 262 262 262 264 263 263 269 270 267 268 270 270 269 270 275
nan nan nan nan nan nan nan nan nan nan nan nan nan nan nan nan nan nan nan nan nan nan nan nan nan nan nan nan nan nan nan nan nan nan nan nan nan nan nan nan nan nan nan nan nan nan nan nan nan nan nan nan nan nan nan nan nan nan nan nan 247 249 251 255 259 261 262 262 262 261 262 262 262 263 263 264 265 268 271 271 272 274 275 273 272
nan nan nan nan nan nan nan nan nan nan nan nan nan nan nan nan nan nan nan nan nan nan nan nan nan nan nan nan nan nan nan nan nan nan nan nan nan nan nan nan nan nan nan nan nan nan nan nan nan nan nan nan nan nan nan nan nan nan nan nan nan nan nan 251 254 258 262 262 263 263 262 261 262 261 261 261 264 265 268 271 272 273 274 275 273
nan nan nan nan nan nan nan nan nan nan nan nan nan nan nan nan nan nan nan nan nan nan nan nan nan nan nan nan nan nan nan nan nan nan nan nan nan nan nan nan nan nan nan nan nan nan nan nan nan nan nan nan nan nan nan nan nan nan nan nan nan nan nan nan nan nan 258 261 263 264 265 264 263 262 261 261 262 262 263 268 270 271 273 275 274
nan nan nan nan nan nan nan nan nan nan nan nan nan nan nan nan nan nan nan nan nan nan nan nan nan nan nan nan nan nan nan nan nan nan nan nan nan nan nan nan nan nan nan nan nan nan nan nan nan nan nan nan nan nan nan nan nan nan nan nan nan nan nan nan nan nan nan 255 259 262 264 264 264 263 263 263 262 264 265 266 270 269 269 272 273
nan nan nan nan nan nan nan nan nan nan nan nan nan nan nan nan nan nan nan nan nan nan nan nan nan nan nan nan nan nan nan nan nan nan nan nan nan nan nan nan nan nan nan nan nan nan nan nan nan nan nan nan nan nan nan nan nan nan nan nan nan nan nan nan nan nan nan nan 254 257 260 262 263 264 265 264 263 263 264 265 265 266 266 264 265
nan nan nan nan nan nan nan nan nan nan nan nan nan nan nan nan nan nan nan nan nan nan nan nan nan nan nan nan nan nan nan nan nan nan nan nan nan nan nan nan nan nan nan nan nan nan nan nan nan nan nan nan nan nan nan nan nan nan nan nan nan nan nan nan nan nan nan nan nan 257 257 259 263 264 265 266 265 265 264 264 264 267 267 268 271
nan nan nan nan nan nan nan nan nan nan nan nan nan nan nan nan nan nan nan nan nan nan nan nan nan nan nan nan nan nan nan nan nan nan nan nan nan nan nan nan nan nan nan nan nan nan nan nan nan nan nan nan nan nan nan nan nan nan nan nan nan nan nan nan nan nan nan 255 260 260 259 259 262 264 265 266 267 266 264 262 262 264 264 264 265
nan nan nan nan nan nan nan nan nan nan nan nan nan nan nan nan nan nan nan nan nan nan nan nan nan nan nan nan nan nan nan nan nan nan nan nan nan nan nan nan nan nan nan nan nan nan nan nan nan nan nan nan nan nan nan nan nan nan nan nan nan nan nan nan nan nan nan nan nan 253 257 260 260 260 263 264 265 266 265 264 263 262 263 265 266
nan nan nan nan nan nan nan nan nan nan nan nan nan nan nan nan nan nan nan nan nan nan nan nan nan nan nan nan nan nan nan nan nan nan nan nan nan nan nan nan nan nan nan nan nan nan nan nan nan nan nan nan nan nan nan nan nan nan nan nan nan nan nan nan nan nan nan nan nan nan nan nan 251 255 259 262 263 264 265 266 265 263 261 262 261
nan nan nan nan nan nan nan nan nan nan nan nan nan nan nan nan nan nan nan nan nan nan nan nan nan nan nan nan nan nan nan nan nan nan nan nan nan nan nan nan nan nan nan nan nan nan nan nan nan nan nan nan nan nan nan nan nan nan nan nan nan nan nan nan nan nan nan nan nan nan nan nan nan nan 254 257 260 263 263 265 266 266 265 264 264
nan nan nan nan nan nan nan nan nan nan nan nan nan nan nan nan nan nan nan nan nan nan nan nan nan nan nan nan nan nan nan nan nan nan nan nan nan nan nan nan nan nan nan nan nan nan nan nan nan nan nan nan nan nan nan nan nan nan nan nan nan nan nan nan nan nan nan nan nan nan nan nan nan 251 252 nan 257 259 261 263 263 262 263 264 nan
nan nan nan nan nan nan nan nan nan nan nan nan nan nan nan nan nan nan nan nan nan nan nan nan nan nan nan nan nan nan nan nan nan nan nan nan nan nan nan nan nan nan nan nan nan nan nan nan nan nan nan nan nan nan nan nan nan nan nan nan nan nan nan nan nan nan nan nan nan nan nan nan nan nan nan nan nan nan 260 262 263 263 263 263 264
nan nan nan nan nan nan nan nan nan nan nan nan nan nan nan nan nan nan nan nan nan nan nan nan nan nan nan nan nan nan nan nan nan nan nan nan nan nan nan nan nan nan nan nan nan nan nan nan nan nan nan nan nan nan nan nan nan nan nan nan nan nan nan nan nan nan nan nan nan nan nan nan nan nan nan nan nan nan nan nan 261 262 262 262 262
nan nan nan nan nan nan nan nan nan nan nan nan nan nan nan nan nan nan nan nan nan nan nan nan nan nan nan nan nan nan nan nan nan nan nan nan nan nan nan nan nan nan nan nan nan nan nan nan nan nan nan nan nan nan nan nan nan nan nan nan nan nan nan nan nan nan nan nan nan nan nan nan nan nan nan nan nan nan nan nan nan nan 260 261 261
nan nan nan nan nan nan nan nan nan nan nan nan nan nan nan nan nan nan nan nan nan nan nan nan nan nan nan nan nan nan nan nan nan nan nan nan nan nan nan nan nan nan nan nan nan nan nan nan nan nan nan nan nan nan nan nan nan nan nan nan nan nan nan nan nan nan nan nan nan nan nan nan nan nan nan nan nan nan nan nan nan nan nan nan 261
nan nan nan nan nan nan nan nan nan nan nan nan nan nan nan nan nan nan nan nan nan nan nan nan nan nan nan nan nan nan nan nan nan nan nan nan nan nan nan nan nan nan nan nan nan nan nan nan nan nan nan nan nan nan nan nan nan nan nan nan nan nan nan nan nan nan nan nan nan nan nan nan nan nan nan nan nan nan nan nan nan nan nan nan nan
nan nan nan nan nan nan nan nan nan nan nan nan nan nan nan nan nan nan nan nan nan nan nan nan nan nan nan nan nan nan nan nan nan nan nan nan nan nan nan nan nan nan nan nan nan nan nan nan nan nan nan nan nan nan nan nan nan nan nan nan nan nan nan nan nan nan nan nan nan nan nan nan nan nan nan nan nan nan nan nan nan nan nan nan nan